Weather History for KPNE - November, 2012

Change the Weather History Date:

Friday, November 9, 2012

  Actual Average Record
Temperature  
Mean Temperature 44 °F -  
Max Temperature 55 °F 53 °F 70 °F (2006)
Min Temperature 33 °F 36 °F 28 °F (2003)
Degree Days  
Heating Degree Days 21    
Moisture  
Dew Point 27 °F    
Average Humidity 53    
Maximum Humidity 79    
Minimum Humidity 35    
Precipitation  
Precipitation 0.00 in - - ()
Sea Level Pressure  
Sea Level Pressure 30.13 in    
Wind  
Wind Speed 8 mph (NW)    
Max Wind Speed 17 mph    
Max Gust Speed 26 mph    
Visibility 10 miles    
Events      
Averages and records for this station are not official NWS values.
T = Trace of Precipitation, MM = Missing Value Source: NWS Daily Summary

Daily Weather History Graph

Daily Weather History Graph

Search for Another Location

Airport or City:

Trip Planner

Search our weather history database for the weather conditions in past years. The results will help you decide how hot, cold, wet, or windy it might be!

Date:

Astronomy

Nov. 09, 2012 Rise Set
Actual Time 6:38 AM EST 4:48 PM EST
Civil Twilight 6:10 AM EST 5:17 PM EST
Nautical Twilight 5:37 AM EST 5:49 PM EST
Astronomical Twilight 5:05 AM EST 6:21 PM EST
Moon 1:35 AM EST (11/9) 2:00 PM EST (11/9)
Length of Visible Light 11h 06m
Length of Day
10h 09m
Waning Crescent, 23% of the Moon is Illuminated
Nov 9
Waning Crescent
Nov 13
New
Nov 20
First Quarter
Nov 28
Full
Dec 6
Last Quarter

Hourly Weather History & Observations

Time (EST) Temp. Windchill Dew Point Humidity Pressure Visibility Wind Dir Wind Speed Gust Speed Precip Events Conditions
12:54 AM 36.0 °F 30.3 °F 21.0 °F 55% 30.01 in 10.0 mi NNW 6.9 mph - N/A   Clear
1:54 AM 37.0 °F 31.0 °F 23.0 °F 57% 30.02 in 10.0 mi NW 8.1 mph - N/A   Clear
2:54 AM 36.0 °F 33.3 °F 24.1 °F 62% 30.04 in 10.0 mi Variable 3.5 mph - N/A   Clear
3:54 AM 33.1 °F 28.7 °F 23.0 °F 66% 30.05 in 10.0 mi West 4.6 mph - N/A   Clear
4:54 AM 34.0 °F 29.8 °F 21.9 °F 61% 30.06 in 10.0 mi WNW 4.6 mph - N/A   Clear
5:54 AM 35.1 °F 28.6 °F 21.0 °F 57% 30.08 in 10.0 mi WNW 8.1 mph - N/A   Clear
6:54 AM 35.1 °F 29.3 °F 21.0 °F 57% 30.10 in 10.0 mi NW 6.9 mph - N/A   Clear
7:54 AM 39.0 °F 32.3 °F 24.1 °F 55% 30.12 in 10.0 mi NW 10.4 mph - N/A   Clear
8:54 AM 43.0 °F 35.4 °F 27.0 °F 53% 30.13 in 10.0 mi NW 16.1 mph 20.7 mph N/A   Clear
9:54 AM 46.0 °F 39.0 °F 26.1 °F 46% 30.14 in 10.0 mi NNW 17.3 mph 26.5 mph N/A   Clear
10:54 AM 50.0 °F - 26.1 °F 39% 30.15 in 10.0 mi NNW 12.7 mph - N/A   Clear
11:54 AM 52.0 °F - 25.0 °F 35% 30.14 in - NNW 13.8 mph 20.7 mph N/A   Clear
12:54 PM 52.0 °F - 27.0 °F 38% 30.13 in 10.0 mi NW 13.8 mph - N/A   Clear
1:54 PM 53.1 °F - 28.0 °F 38% 30.12 in 10.0 mi WNW 13.8 mph 20.7 mph N/A   Clear
2:54 PM 55.0 °F - 28.9 °F 37% 30.12 in 10.0 mi NW 9.2 mph 21.9 mph N/A   Clear
3:09 PM 55.4 °F - 28.4 °F 36% 30.12 in - NNW 11.5 mph - N/A   Unknown
3:54 PM 53.1 °F - 28.9 °F 40% 30.13 in 10.0 mi WNW 9.2 mph - N/A   Clear
4:54 PM 51.1 °F - 28.9 °F 43% 30.14 in 10.0 mi WNW 6.9 mph - N/A   Clear
5:54 PM 46.0 °F 43.9 °F 30.0 °F 54% 30.17 in 10.0 mi West 4.6 mph - N/A   Clear
6:54 PM 46.9 °F - 30.0 °F 52% 30.19 in 10.0 mi WNW 4.6 mph - N/A   Clear
7:54 PM 46.9 °F - 30.9 °F 54% 30.22 in 10.0 mi Calm Calm - N/A   Clear
8:54 PM 42.1 °F - 30.9 °F 65% 30.22 in 10.0 mi Calm Calm - N/A   Clear
9:54 PM 41.0 °F 38.0 °F 32.0 °F 70% 30.23 in 9.0 mi NNW 4.6 mph - N/A   Clear
10:54 PM 37.9 °F - 32.0 °F 79% 30.24 in 10.0 mi Calm Calm - N/A   Clear
11:54 PM 37.9 °F - 32.0 °F 79% 30.25 in 10.0 mi Calm Calm - N/A   Clear